Hourly Data Report for September 17, 2017

All times are specified in Local Standard Time (LST). Add 1 hour to adjust for Daylight Saving Time where and when it is observed.

FREDERICTON
NEW BRUNSWICK

45°52'08.000" N
66°32'14.000" W
20.70 m
8101505
71700
YFC

Download Data

Hourly Data (September 2017)
Hourly Data Report for September 17, 2017
Temp Definition
°C
Dew Point Temp Definition
°C
Rel Hum Definition
%
Wind Dir Definition
10's deg

Wind Spd Definition
km/h
Visibility Definition
km
Stn Press Definition
kPa
Hmdx Definition


Wind Chill Definition


Weather Definition


TIME
00:00 Legend Double Dagger 14.9 11.9 82 2 11 16.1 101.93     LegendNANA
01:00 Legend Double Dagger 14.9 11.7 81 3 13 16.1 101.95     LegendNANA
02:00 Legend Double Dagger 14.5 11.7 83 7 8 16.1 101.87     LegendNANA
03:00 Legend Double Dagger 14.4 11.6 83 3 11 16.1 101.89     LegendNANA
04:00 Legend Double Dagger 14.2 11.6 84 3 11 16.1 101.89     LegendNANA
05:00 Legend Double Dagger 14.2 11.5 84 2 8 16.1 101.93     LegendNANA
06:00 Legend Double Dagger 14.1 11.5 84 8 5 16.1 101.93     LegendNANA
07:00 Legend Double Dagger 14.2 11.7 85 1 9 16.1 101.98     LegendNANA
08:00 Legend Double Dagger 14.6 12.3 86 3 8 16.1 102.00     LegendNANA
09:00 Legend Double Dagger 15.5 12.8 84   0 16.1 102.02     LegendNANA
10:00 Legend Double Dagger 15.6 13.0 84 8 5 16.1 102.01     LegendNANA
11:00 Legend Double Dagger 17.1 13.5 79 22 5 16.1 101.96     LegendNANA
12:00 Legend Double Dagger 19.4 14.5 73 LegendMM 5 16.1 101.91     LegendNANA
13:00 Legend Double Dagger 21.8 15.5 67 6 5 16.1 101.83 26   LegendNANA
14:00 Legend Double Dagger 22.3 16.5 69 2 11 16.1 101.78 27   LegendNANA
15:00 Legend Double Dagger 23.5 17.2 67 6 13 16.1 101.73 29   LegendNANA
16:00 Legend Double Dagger 24.5 17.7 65 8 11 16.1 101.70 30   LegendNANA
17:00 Legend Double Dagger 23.0 17.8 72 8 17 16.1 101.70 29   LegendNANA
18:00 Legend Double Dagger 21.6 18.3 81 6 11 16.1 101.72 28   LegendNANA
19:00 Legend Double Dagger 20.4 18.1 87 8 5 16.1 101.75 26   LegendNANA
20:00 Legend Double Dagger 19.1 18.0 93   0 16.1 101.77     LegendNANA
21:00 Legend Double Dagger 17.9 17.1 95 4 13 16.1 101.86     LegendNANA
22:00 Legend Double Dagger 17.1 16.1 94 9 13 16.1 101.91     LegendNANA
23:00 Legend Double Dagger 16.2 15.3 94 13 5 16.1 101.91     LegendNANA

Notes on Data Quality.

Legend

  • E = Estimated
  • M = Missing
  • NA = Not Available
  • ‡ = Partner data that is not subject to review by the National Climate Archives
Date modified: